QPF
0.02 0.02 0.02 0.01 0.01 0.01 0.01 0.02 0.02 0.03 0.04 0.05 0.08 0.07 0.05 0.03 0.02 0.02 0.02 0.01 0.01 0.01 0.03 0.04 0.05 0.03 0.01 0.01 0.01 0.02 0.03 0.03 0.03 0.03 0.03 0.03 0.03 0.05 0.07 0.09 0.09 0.10 0.08 0.06
0.01 0.01 0.02 0.02 0.01 0.01 0.01 0.01 0.02 0.03 0.06 0.07 0.11 0.10 0.05 0.03 0.02 0.02 0.02 0.01 0.01 0.01 0.03 0.04 0.05 0.06 0.04 0.03 0.03 0.04 0.05 0.04 0.04 0.03 0.02 0.01 0.02 0.02 0.04 0.05 0.07 0.08 0.08 0.05
0.01 0.00 0.01 0.01 0.01 0.01 0.01 0.01 0.02 0.04 0.05 0.05 0.06 0.06 0.04 0.03 0.02 0.01 0.03 0.03 0.02 0.03 0.03 0.04 0.05 0.06 0.06 0.07 0.07 0.06 0.04 0.03 0.03 0.02 0.02 0.02 0.02 0.02 0.02 0.02 0.03 0.04 0.04 0.03
0.00 0.00 0.01 0.01 0.01 0.01 0.01 0.01 0.02 0.03 0.04 0.06 0.04 0.03 0.03 0.03 0.02 0.01 0.01 0.04 0.05 0.06 0.05 0.05 0.07 0.07 0.06 0.06 0.05 0.04 0.04 0.03 0.03 0.03 0.03 0.03 0.03 0.02 0.02 0.01 0.01 0.01 0.01 0.01
0.00 0.00 0.01 0.01 0.01 0.01 0.02 0.03 0.04 0.03 0.03 0.04 0.05 0.04 0.03 0.02 0.02 0.02 0.04 0.07 0.07 0.07 0.05 0.05 0.08 0.10 0.09 0.06 0.06 0.05 0.05 0.04 0.05 0.06 0.07 0.07 0.05 0.04 0.04 0.02 0.01 0.01 0.01 0.01
0.00 0.00 0.01 0.02 0.01 0.01 0.03 0.07 0.05 0.05 0.06 0.07 0.06 0.04 0.03 0.03 0.04 0.04 0.04 0.04 0.05 0.12 0.11 0.06 0.04 0.05 0.05 0.06 0.07 0.07 0.06 0.07 0.07 0.05 0.04 0.04 0.05 0.04 0.04 0.03 0.02 0.02 0.02 0.01
0.01 0.01 0.03 0.02 0.01 0.01 0.04 0.09 0.05 0.05 0.05 0.09 0.10 0.05 0.04 0.04 0.06 0.07 0.06 0.04 0.04 0.05 0.08 0.06 0.06 0.05 0.05 0.04 0.04 0.08 0.08 0.07 0.06 0.05 0.03 0.03 0.04 0.03 0.03 0.03 0.03 0.02 0.02 0.02
0.02 0.04 0.08 0.04 0.02 0.02 0.05 0.06 0.05 0.05 0.05 0.05 0.07 0.06 0.05 0.05 0.06 0.07 0.11 0.07 0.05 0.04 0.04 0.06 0.09 0.10 0.08 0.06 0.03 0.04 0.04 0.05 0.05 0.05 0.04 0.04 0.04 0.04 0.04 0.03 0.03 0.02 0.02 0.02
0.04 0.06 0.07 0.05 0.03 0.04 0.06 0.07 0.06 0.06 0.07 0.05 0.05 0.05 0.05 0.04 0.04 0.04 0.04 0.07 0.05 0.04 0.05 0.13 0.16 0.14 0.10 0.06 0.04 0.04 0.05 0.05 0.06 0.08 0.07 0.07 0.09 0.10 0.09 0.07 0.05 0.03 0.03 0.01
0.05 0.06 0.06 0.05 0.04 0.07 0.09 0.08 0.08 0.07 0.07 0.06 0.05 0.05 0.05 0.03 0.03 0.02 0.03 0.03 0.06 0.06 0.05 0.17 0.24 0.17 0.12 0.08 0.07 0.06 0.06 0.06 0.06 0.07 0.09 0.09 0.10 0.10 0.10 0.11 0.11 0.09 0.05 0.03
0.05 0.07 0.05 0.04 0.04 0.06 0.05 0.05 0.06 0.07 0.06 0.05 0.04 0.03 0.03 0.03 0.03 0.03 0.05 0.05 0.04 0.07 0.04 0.06 0.14 0.17 0.12 0.10 0.11 0.10 0.10 0.09 0.07 0.06 0.06 0.06 0.06 0.05 0.06 0.08 0.09 0.09 0.08 0.07
0.05 0.05 0.07 0.07 0.08 0.06 0.03 0.03 0.05 0.05 0.03 0.03 0.03 0.04 0.03 0.03 0.03 0.03 0.03 0.03 0.03 0.03 0.03 0.04 0.04 0.06 0.07 0.05 0.05 0.06 0.06 0.06 0.05 0.04 0.03 0.06 0.09 0.08 0.07 0.07 0.08 0.08 0.08 0.07
0.03 0.07 0.10 0.07 0.07 0.06 0.04 0.03 0.04 0.04 0.02 0.03 0.02 0.02 0.03 0.03 0.03 0.02 0.02 0.02 0.03 0.03 0.03 0.03 0.02 0.02 0.02 0.02 0.02 0.02 0.02 0.02 0.02 0.02 0.03 0.05 0.09 0.13 0.10 0.08 0.09 0.09 0.09 0.08
0.03 0.05 0.06 0.05 0.05 0.06 0.04 0.04 0.05 0.06 0.04 0.04 0.03 0.02 0.02 0.03 0.03 0.02 0.01 0.02 0.02 0.02 0.03 0.03 0.03 0.03 0.03 0.04 0.05 0.04 0.03 0.04 0.03 0.03 0.04 0.05 0.05 0.07 0.07 0.07 0.07 0.06 0.05 0.05
0.04 0.04 0.04 0.04 0.06 0.09 0.06 0.04 0.03 0.04 0.05 0.05 0.04 0.03 0.02 0.02 0.03 0.03 0.03 0.03 0.02 0.02 0.02 0.03 0.04 0.05 0.06 0.07 0.08 0.07 0.05 0.04 0.03 0.04 0.04 0.05 0.05 0.05 0.04 0.04 0.04 0.05 0.05 0.04
0.04 0.03 0.04 0.06 0.04 0.07 0.07 0.06 0.05 0.05 0.07 0.07 0.06 0.06 0.04 0.03 0.02 0.02 0.03 0.03 0.02 0.02 0.02 0.02 0.04 0.06 0.08 0.07 0.06 0.07 0.04 0.03 0.04 0.04 0.04 0.05 0.04 0.03 0.03 0.03 0.04 0.04 0.04 0.04
0.04 0.04 0.06 0.08 0.04 0.04 0.05 0.08 0.09 0.06 0.05 0.05 0.04 0.03 0.03 0.04 0.05 0.04 0.02 0.02 0.02 0.02 0.02 0.02 0.02 0.02 0.03 0.03 0.02 0.02 0.03 0.04 0.04 0.04 0.03 0.03 0.04 0.03 0.04 0.05 0.05 0.05 0.04 0.04
0.05 0.04 0.06 0.07 0.07 0.06 0.05 0.08 0.09 0.06 0.04 0.03 0.04 0.03 0.03 0.05 0.07 0.07 0.04 0.02 0.02 0.01 0.01 0.01 0.02 0.02 0.02 0.02 0.02 0.02 0.02 0.03 0.04 0.04 0.03 0.03 0.04 0.05 0.05 0.06 0.06 0.05 0.04 0.03
0.05 0.05 0.05 0.05 0.06 0.06 0.05 0.06 0.04 0.03 0.02 0.02 0.02 0.02 0.02 0.03 0.03 0.03 0.02 0.02 0.02 0.02 0.02 0.02 0.02 0.02 0.02 0.03 0.02 0.02 0.03 0.03 0.03 0.03 0.03 0.03 0.05 0.05 0.05 0.04 0.04 0.04 0.03 0.03
0.04 0.04 0.04 0.03 0.04 0.06 0.06 0.06 0.08 0.06 0.03 0.03 0.03 0.02 0.02 0.01 0.02 0.03 0.02 0.02 0.02 0.02 0.02 0.02 0.02 0.02 0.02 0.01 0.02 0.02 0.02 0.03 0.03 0.03 0.03 0.03 0.05 0.07 0.06 0.05 0.05 0.04 0.03 0.03
0.01 0.02 0.03 0.03 0.03 0.05 0.07 0.06 0.06 0.08 0.06 0.03 0.03 0.02 0.02 0.03 0.03 0.03 0.02 0.02 0.02 0.02 0.01 0.02 0.01 0.01 0.01 0.01 0.01 0.02 0.02 0.03 0.03 0.03 0.03 0.03 0.04 0.05 0.06 0.06 0.06 0.05 0.03 0.03
0.02 0.03 0.03 0.04 0.04 0.04 0.05 0.05 0.02 0.02 0.02 0.02 0.02 0.02 0.03 0.03 0.03 0.03 0.02 0.02 0.02 0.02 0.02 0.01 0.01 0.01 0.01 0.01 0.01 0.02 0.02 0.02 0.02 0.02 0.03 0.03 0.04 0.04 0.05 0.06 0.06 0.05 0.04 0.03
0.04 0.03 0.03 0.04 0.05 0.05 0.03 0.03 0.02 0.02 0.02 0.02 0.02 0.02 0.02 0.02 0.02 0.02 0.02 0.02 0.02 0.01 0.02 0.01 0.01 0.01 0.02 0.01 0.02 0.02 0.02 0.02 0.02 0.03 0.04 0.04 0.05 0.05 0.05 0.06 0.06 0.05 0.05 0.04
0.06 0.05 0.04 0.05 0.08 0.06 0.04 0.05 0.04 0.04 0.04 0.04 0.03 0.02 0.02 0.02 0.02 0.02 0.01 0.02 0.03 0.03 0.02 0.02 0.02 0.01 0.02 0.02 0.02 0.03 0.03 0.04 0.04 0.05 0.05 0.05 0.04 0.04 0.04 0.05 0.05 0.05 0.05 0.04
0.05 0.07 0.05 0.06 0.08 0.06 0.05 0.05 0.04 0.03 0.03 0.03 0.03 0.03 0.04 0.03 0.02 0.02 0.02 0.02 0.03 0.02 0.02 0.02 0.03 0.02 0.02 0.02 0.03 0.04 0.05 0.05 0.04 0.04 0.05 0.04 0.04 0.04 0.04 0.05 0.05 0.04 0.04 0.04
0.05 0.08 0.07 0.07 0.05 0.03 0.05 0.05 0.04 0.03 0.03 0.04 0.06 0.07 0.06 0.05 0.03 0.02 0.02 0.02 0.02 0.02 0.02 0.02 0.03 0.03 0.03 0.03 0.03 0.05 0.04 0.03 0.03 0.03 0.04 0.04 0.04 0.04 0.04 0.04 0.05 0.04 0.05 0.04
0.06 0.08 0.06 0.05 0.03 0.03 0.03 0.04 0.04 0.05 0.05 0.05 0.06 0.06 0.05 0.05 0.04 0.03 0.03 0.03 0.02 0.02 0.02 0.02 0.02 0.02 0.02 0.03 0.03 0.02 0.01 0.01 0.02 0.02 0.03 0.04 0.04 0.04 0.04 0.05 0.05 0.05 0.06 0.05
MSLP
1007.50 1008.06 1008.57 1009.03 1009.43 1009.74 1009.93 1009.95 1009.80 1009.49 1009.02 1008.48 1007.90 1007.38 1006.97 1006.69 1006.57 1006.58 1006.67 1006.80 1006.89 1006.91 1006.83 1006.65 1006.41 1006.14 1005.90 1005.74 1005.71 1005.81 1006.05 1006.42 1006.88 1007.41 1007.98 1008.56 1009.14 1009.72 1010.30 1010.90 1011.51 1012.14 1012.79 1013.45
1008.02 1008.52 1008.90 1009.18 1009.37 1009.47 1009.48 1009.42 1009.27 1009.04 1008.76 1008.45 1008.14 1007.88 1007.68 1007.56 1007.51 1007.51 1007.53 1007.54 1007.49 1007.36 1007.15 1006.86 1006.53 1006.19 1005.89 1005.66 1005.53 1005.53 1005.65 1005.88 1006.22 1006.64 1007.14 1007.68 1008.27 1008.89 1009.54 1010.22 1010.93 1011.65 1012.37 1013.10
1008.72 1009.14 1009.38 1009.49 1009.49 1009.42 1009.32 1009.19 1009.05 1008.91 1008.79 1008.67 1008.58 1008.51 1008.47 1008.44 1008.41 1008.37 1008.30 1008.18 1008.00 1007.76 1007.45 1007.09 1006.72 1006.34 1006.00 1005.72 1005.52 1005.41 1005.40 1005.50 1005.69 1005.98 1006.37 1006.84 1007.40 1008.04 1008.74 1009.49 1010.27 1011.08 1011.88 1012.66
1009.48 1009.79 1009.90 1009.85 1009.71 1009.52 1009.33 1009.16 1009.05 1009.00 1008.99 1009.02 1009.07 1009.13 1009.16 1009.17 1009.13 1009.03 1008.87 1008.65 1008.38 1008.05 1007.70 1007.32 1006.94 1006.57 1006.23 1005.93 1005.67 1005.47 1005.34 1005.28 1005.32 1005.46 1005.72 1006.10 1006.60 1007.22 1007.94 1008.73 1009.58 1010.45 1011.31 1012.14
1010.13 1010.31 1010.29 1010.11 1009.86 1009.59 1009.35 1009.18 1009.09 1009.10 1009.18 1009.31 1009.45 1009.57 1009.64 1009.64 1009.57 1009.41 1009.19 1008.90 1008.57 1008.22 1007.87 1007.52 1007.18 1006.85 1006.54 1006.23 1005.94 1005.67 1005.42 1005.23 1005.12 1005.11 1005.23 1005.50 1005.92 1006.50 1007.20 1008.01 1008.89 1009.79 1010.69 1011.56
1010.50 1010.54 1010.39 1010.12 1009.79 1009.48 1009.23 1009.07 1009.03 1009.09 1009.22 1009.41 1009.59 1009.74 1009.81 1009.80 1009.69 1009.49 1009.23 1008.92 1008.59 1008.26 1007.95 1007.67 1007.40 1007.14 1006.87 1006.59 1006.28 1005.95 1005.62 1005.31 1005.06 1004.91 1004.90 1005.05 1005.39 1005.90 1006.57 1007.36 1008.23 1009.15 1010.06 1010.94
1010.49 1010.40 1010.15 1009.81 1009.44 1009.12 1008.89 1008.76 1008.76 1008.86 1009.04 1009.25 1009.45 1009.60 1009.67 1009.64 1009.51 1009.30 1009.03 1008.74 1008.45 1008.18 1007.95 1007.75 1007.57 1007.39 1007.19 1006.93 1006.62 1006.25 1005.85 1005.45 1005.09 1004.82 1004.70 1004.75 1005.00 1005.44 1006.05 1006.80 1007.64 1008.53 1009.43 1010.30
1010.09 1009.88 1009.56 1009.19 1008.83 1008.53 1008.33 1008.26 1008.30 1008.44 1008.64 1008.86 1009.07 1009.21 1009.27 1009.23 1009.10 1008.91 1008.67 1008.43 1008.20 1008.02 1007.88 1007.77 1007.68 1007.57 1007.42 1007.19 1006.88 1006.50 1006.05 1005.59 1005.16 1004.81 1004.60 1004.58 1004.74 1005.11 1005.66 1006.35 1007.14 1007.98 1008.84 1009.68
1009.40 1009.11 1008.75 1008.38 1008.05 1007.80 1007.66 1007.63 1007.72 1007.89 1008.10 1008.33 1008.53 1008.66 1008.72 1008.68 1008.58 1008.42 1008.24 1008.06 1007.92 1007.82 1007.76 1007.73 1007.71 1007.65 1007.54 1007.33 1007.03 1006.63 1006.17 1005.68 1005.22 1004.83 1004.58 1004.50 1004.61 1004.92 1005.40 1006.02 1006.74 1007.52 1008.31 1009.10
1008.56 1008.23 1007.87 1007.53 1007.26 1007.08 1007.00 1007.02 1007.14 1007.33 1007.55 1007.77 1007.95 1008.08 1008.13 1008.12 1008.04 1007.93 1007.81 1007.71 1007.64 1007.61 1007.61 1007.63 1007.65 1007.62 1007.52 1007.32 1007.03 1006.64 1006.19 1005.71 1005.25 1004.87 1004.61 1004.51 1004.59 1004.84 1005.26 1005.81 1006.45 1007.14 1007.86 1008.57
1007.75 1007.42 1007.09 1006.81 1006.60 1006.49 1006.47 1006.54 1006.68 1006.87 1007.08 1007.28 1007.44 1007.55 1007.61 1007.61 1007.57 1007.50 1007.44 1007.39 1007.37 1007.38 1007.42 1007.46 1007.48 1007.45 1007.35 1007.16 1006.88 1006.51 1006.09 1005.65 1005.24 1004.89 1004.66 1004.58 1004.65 1004.87 1005.23 1005.70 1006.26 1006.86 1007.48 1008.11
1007.09 1006.79 1006.52 1006.30 1006.17 1006.12 1006.15 1006.25 1006.39 1006.57 1006.75 1006.91 1007.04 1007.13 1007.17 1007.18 1007.17 1007.14 1007.11 1007.10 1007.11 1007.14 1007.17 1007.20 1007.20 1007.15 1007.04 1006.85 1006.58 1006.25 1005.88 1005.52 1005.18 1004.91 1004.74 1004.69 1004.76 1004.97 1005.28 1005.67 1006.14 1006.64 1007.17 1007.71
1006.63 1006.37 1006.16 1006.02 1005.95 1005.95 1006.01 1006.11 1006.25 1006.39 1006.52 1006.64 1006.72 1006.78 1006.81 1006.81 1006.80 1006.79 1006.79 1006.79 1006.80 1006.82 1006.84 1006.83 1006.80 1006.72 1006.58 1006.39 1006.15 1005.88 1005.59 1005.31 1005.07 1004.90 1004.80 1004.80 1004.90 1005.09 1005.35 1005.68 1006.04 1006.45 1006.87 1007.33
1006.34 1006.13 1005.98 1005.90 1005.87 1005.90 1005.97 1006.06 1006.16 1006.26 1006.33 1006.39 1006.42 1006.44 1006.44 1006.43 1006.41 1006.40 1006.40 1006.40 1006.39 1006.39 1006.36 1006.32 1006.25 1006.14 1005.99 1005.82 1005.62 1005.41 1005.22 1005.04 1004.91 1004.84 1004.83 1004.88 1005.00 1005.18 1005.40 1005.65 1005.93 1006.23 1006.56 1006.93
1006.13 1005.97 1005.87 1005.82 1005.83 1005.87 1005.93 1005.99 1006.05 1006.08 1006.09 1006.08 1006.06 1006.02 1005.99 1005.95 1005.92 1005.90 1005.88 1005.86 1005.83 1005.79 1005.73 1005.65 1005.54 1005.42 1005.27 1005.13 1004.98 1004.86 1004.76 1004.70 1004.68 1004.70 1004.78 1004.89 1005.02 1005.18 1005.36 1005.55 1005.74 1005.96 1006.20 1006.48
1005.94 1005.81 1005.73 1005.71 1005.73 1005.76 1005.80 1005.82 1005.82 1005.79 1005.73 1005.66 1005.57 1005.49 1005.41 1005.34 1005.28 1005.24 1005.20 1005.15 1005.10 1005.03 1004.93 1004.82 1004.70 1004.56 1004.44 1004.33 1004.25 1004.20 1004.20 1004.25 1004.34 1004.46 1004.60 1004.76 1004.91 1005.06 1005.20 1005.32 1005.45 1005.58 1005.75 1005.97
1005.71 1005.58 1005.52 1005.51 1005.51 1005.53 1005.53 1005.50 1005.44 1005.35 1005.22 1005.08 1004.94 1004.80 1004.68 1004.57 1004.49 1004.42 1004.35 1004.28 1004.20 1004.10 1003.99 1003.86 1003.73 1003.60 1003.50 1003.44 1003.42 1003.46 1003.55 1003.70 1003.87 1004.07 1004.28 1004.47 1004.64 1004.78 1004.88 1004.96 1005.03 1005.10 1005.22 1005.39
1005.43 1005.31 1005.24 1005.21 1005.20 1005.18 1005.13 1005.05 1004.93 1004.77 1004.58 1004.37 1004.17 1003.98 1003.81 1003.67 1003.55 1003.45 1003.36 1003.27 1003.17 1003.05 1002.93 1002.80 1002.67 1002.57 1002.50 1002.49 1002.54 1002.65 1002.81 1003.03 1003.28 1003.54 1003.80 1004.02 1004.20 1004.33 1004.41 1004.46 1004.49 1004.53 1004.61 1004.76
1005.15 1005.02 1004.93 1004.88 1004.82 1004.76 1004.65 1004.50 1004.31 1004.08 1003.82 1003.55 1003.28 1003.04 1002.82 1002.64 1002.49 1002.36 1002.25 1002.14 1002.03 1001.92 1001.80 1001.68 1001.57 1001.50 1001.47 1001.50 1001.60 1001.77 1002.00 1002.27 1002.58 1002.88 1003.16 1003.41 1003.59 1003.73 1003.80 1003.84 1003.86 1003.90 1003.97 1004.11
1004.92 1004.77 1004.65 1004.55 1004.45 1004.31 1004.13 1003.90 1003.63 1003.31 1002.97 1002.62 1002.29 1001.98 1001.72 1001.49 1001.31 1001.16 1001.04 1000.93 1000.82 1000.72 1000.62 1000.52 1000.45 1000.42 1000.44 1000.51 1000.66 1000.87 1001.14 1001.45 1001.78 1002.12 1002.42 1002.68 1002.88 1003.02 1003.11 1003.15 1003.18 1003.23 1003.31 1003.46
1004.79 1004.60 1004.43 1004.27 1004.08 1003.86 1003.58 1003.25 1002.87 1002.45 1002.01 1001.57 1001.16 1000.79 1000.46 1000.20 999.98 999.82 999.70 999.59 999.51 999.44 999.39 999.34 999.32 999.34 999.41 999.53 999.72 999.97 1000.27 1000.60 1000.95 1001.29 1001.61 1001.88 1002.09 1002.25 1002.35 1002.42 1002.48 1002.55 1002.66 1002.83
1004.73 1004.49 1004.25 1004.00 1003.71 1003.37 1002.97 1002.50 1001.99 1001.45 1000.89 1000.35 999.84 999.39 999.01 998.70 998.46 998.30 998.18 998.12 998.08 998.07 998.08 998.11 998.16 998.25 998.38 998.56 998.79 999.07 999.40 999.74 1000.10 1000.45 1000.77 1001.05 1001.27 1001.44 1001.57 1001.67 1001.76 1001.86 1002.00 1002.20
1004.70 1004.39 1004.06 1003.69 1003.26 1002.77 1002.22 1001.60 1000.94 1000.24 999.55 998.89 998.28 997.74 997.30 996.96 996.71 996.55 996.47 996.46 996.49 996.57 996.67 996.80 996.95 997.13 997.34 997.59 997.87 998.19 998.54 998.90 999.26 999.61 999.93 1000.21 1000.44 1000.63 1000.78 1000.91 1001.03 1001.16 1001.33 1001.55
1004.62 1004.21 1003.76 1003.25 1002.67 1002.01 1001.28 1000.49 999.66 998.81 997.97 997.18 996.46 995.84 995.34 994.97 994.72 994.58 994.55 994.61 994.74 994.92 995.14 995.39 995.67 995.96 996.27 996.60 996.95 997.32 997.69 998.07 998.44 998.79 999.10 999.38 999.62 999.82 999.99 1000.14 1000.28 1000.43 1000.62 1000.85
1004.42 1003.89 1003.31 1002.64 1001.89 1001.06 1000.15 999.18 998.18 997.17 996.19 995.27 994.45 993.76 993.22 992.82 992.58 992.48 992.51 992.65 992.89 993.19 993.54 993.93 994.33 994.75 995.17 995.60 996.03 996.45 996.86 997.26 997.63 997.98 998.30 998.57 998.81 999.01 999.19 999.34 999.50 999.66 999.86 1000.10
1004.05 1003.40 1002.68 1001.86 1000.95 999.95 998.88 997.75 996.59 995.44 994.34 993.32 992.42 991.67 991.09 990.68 990.45 990.40 990.49 990.72 991.06 991.48 991.97 992.48 993.02 993.56 994.09 994.61 995.11 995.59 996.04 996.46 996.85 997.20 997.51 997.78 998.01 998.21 998.38 998.54 998.70 998.87 999.07 999.31
1003.53 1002.77 1001.92 1000.98 999.93 998.80 997.60 996.35 995.08 993.83 992.64 991.56 990.60 989.82 989.21 988.81 988.60 988.57 988.73 989.03 989.45 989.97 990.55 991.18 991.82 992.46 993.09 993.69 994.25 994.78 995.27 995.71 996.10 996.45 996.76 997.02 997.24 997.43 997.60 997.76 997.91 998.09 998.29 998.53
Thickness
5780 5789 5791 5788 5789 5792 5783 5773 5763 5769 5773 5786 5796 5800 5801 5802 5803 5802 5801 5800 5798 5797 5795 5793 5790 5789 5788 5786 5784 5780 5775 5771 5767 5764 5762 5759 5756 5753 5750 5747 5745 5741 5737 5734
5774 5787 5786 5781 5787 5791 5788 5785 5780 5779 5778 5795 5799 5799 5796 5796 5797 5794 5795 5795 5794 5793 5791 5788 5786 5783 5781 5780 5778 5776 5770 5765 5763 5759 5756 5754 5751 5748 5744 5741 5738 5735 5731 5728
5751 5770 5770 5757 5774 5781 5782 5785 5783 5772 5780 5791 5789 5788 5788 5789 5791 5790 5790 5790 5789 5787 5785 5783 5782 5781 5776 5773 5771 5769 5765 5761 5757 5753 5750 5748 5746 5742 5738 5735 5732 5729 5725 5722
5740 5748 5733 5757 5786 5788 5782 5782 5786 5784 5784 5786 5785 5786 5787 5788 5786 5784 5785 5786 5784 5781 5778 5777 5776 5773 5771 5768 5764 5761 5758 5755 5752 5749 5745 5742 5739 5735 5732 5729 5726 5723 5721 5717
5727 5727 5738 5760 5777 5782 5773 5765 5781 5779 5780 5781 5783 5779 5774 5782 5783 5782 5782 5781 5780 5777 5775 5771 5769 5766 5762 5757 5755 5752 5750 5748 5746 5744 5740 5735 5731 5729 5727 5724 5720 5718 5716 5713
5725 5722 5721 5745 5774 5787 5774 5751 5774 5777 5775 5775 5773 5754 5757 5774 5777 5777 5776 5774 5772 5770 5767 5763 5761 5759 5753 5748 5746 5744 5743 5742 5740 5738 5735 5731 5728 5725 5723 5719 5716 5713 5710 5708
5718 5716 5725 5753 5771 5776 5743 5742 5766 5770 5769 5767 5762 5759 5763 5767 5768 5768 5767 5765 5764 5760 5756 5754 5753 5750 5743 5740 5739 5739 5738 5736 5734 5732 5730 5727 5723 5721 5718 5714 5710 5707 5705 5703
5709 5706 5715 5753 5758 5748 5744 5756 5758 5760 5762 5761 5760 5758 5758 5758 5758 5758 5755 5755 5753 5749 5746 5745 5744 5741 5735 5732 5734 5732 5730 5728 5727 5725 5724 5722 5717 5714 5711 5707 5703 5700 5697 5695
5712 5712 5730 5744 5746 5749 5751 5749 5750 5751 5754 5754 5751 5749 5748 5748 5748 5747 5746 5745 5744 5740 5737 5735 5734 5733 5728 5727 5727 5725 5722 5720 5719 5718 5717 5714 5710 5706 5703 5699 5695 5693 5691 5689
5709 5717 5727 5734 5739 5742 5744 5744 5746 5747 5747 5746 5742 5740 5738 5738 5738 5737 5736 5735 5734 5731 5728 5727 5727 5725 5724 5722 5721 5718 5714 5712 5710 5709 5707 5705 5702 5700 5696 5692 5690 5686 5685 5683
5699 5709 5717 5724 5729 5731 5734 5737 5738 5739 5739 5737 5734 5731 5729 5728 5727 5726 5725 5724 5723 5720 5718 5719 5719 5718 5717 5716 5713 5709 5706 5704 5702 5700 5698 5695 5693 5692 5690 5689 5687 5684 5681 5679
5691 5704 5705 5710 5721 5726 5725 5725 5727 5727 5727 5727 5725 5722 5721 5719 5718 5718 5717 5715 5712 5711 5710 5710 5710 5709 5708 5708 5706 5701 5698 5696 5693 5691 5689 5687 5684 5682 5683 5683 5683 5681 5679 5676
5702 5708 5708 5711 5715 5717 5716 5716 5718 5717 5716 5715 5716 5715 5713 5710 5709 5708 5707 5705 5703 5703 5702 5701 5700 5700 5699 5699 5698 5694 5690 5688 5686 5683 5681 5679 5677 5675 5674 5675 5675 5674 5672 5670
5703 5704 5700 5701 5703 5707 5708 5709 5709 5708 5707 5708 5708 5706 5704 5702 5700 5697 5697 5697 5697 5695 5693 5693 5692 5691 5691 5690 5687 5685 5682 5680 5679 5676 5674 5673 5671 5669 5667 5665 5663 5663 5664 5663
5695 5697 5694 5696 5697 5698 5700 5700 5697 5695 5696 5696 5698 5697 5695 5692 5689 5688 5688 5688 5688 5685 5683 5683 5682 5682 5682 5681 5678 5675 5673 5672 5671 5670 5668 5666 5664 5662 5660 5659 5657 5655 5654 5653
5685 5688 5688 5687 5686 5687 5688 5687 5684 5683 5684 5684 5684 5684 5684 5683 5681 5680 5678 5678 5676 5674 5674 5674 5673 5673 5673 5672 5669 5667 5666 5666 5665 5663 5661 5659 5657 5654 5653 5651 5649 5647 5645 5644
5673 5672 5674 5674 5676 5676 5676 5677 5677 5675 5674 5674 5674 5674 5674 5673 5670 5669 5668 5668 5668 5667 5667 5665 5665 5666 5665 5664 5661 5659 5658 5657 5657 5655 5653 5652 5650 5648 5646 5644 5643 5641 5640 5639
5667 5667 5667 5668 5667 5666 5666 5667 5666 5666 5664 5665 5665 5664 5663 5662 5661 5660 5658 5659 5658 5658 5659 5659 5658 5657 5656 5656 5654 5652 5650 5649 5648 5646 5645 5645 5644 5643 5641 5639 5637 5636 5633 5632
5660 5659 5659 5660 5660 5659 5658 5658 5658 5658 5658 5656 5655 5654 5654 5654 5653 5652 5651 5649 5648 5647 5649 5650 5649 5648 5647 5646 5646 5644 5643 5641 5640 5639 5639 5638 5637 5636 5634 5632 5631 5630 5629 5626
5650 5650 5650 5650 5651 5650 5649 5649 5649 5649 5650 5649 5647 5646 5644 5644 5644 5643 5642 5640 5640 5641 5642 5641 5640 5639 5639 5639 5638 5637 5636 5635 5634 5632 5631 5630 5630 5629 5628 5627 5626 5624 5623 5621
5639 5640 5640 5640 5640 5641 5641 5641 5639 5639 5640 5640 5639 5638 5637 5636 5636 5634 5632 5631 5633 5635 5634 5634 5632 5632 5632 5631 5631 5629 5629 5628 5627 5626 5625 5624 5623 5622 5621 5620 5619 5618 5617 5615
5629 5630 5630 5631 5630 5631 5632 5632 5632 5632 5632 5632 5631 5630 5629 5627 5627 5626 5625 5624 5625 5626 5626 5626 5626 5626 5625 5625 5624 5623 5622 5622 5621 5621 5619 5618 5617 5615 5614 5614 5613 5612 5610 5609
5620 5621 5622 5623 5622 5623 5624 5624 5624 5624 5623 5623 5623 5622 5620 5619 5618 5617 5616 5618 5618 5619 5618 5618 5619 5619 5619 5617 5617 5616 5615 5615 5615 5614 5613 5612 5611 5610 5608 5608 5606 5605 5604 5603
5612 5612 5613 5615 5616 5615 5614 5615 5616 5616 5617 5616 5616 5615 5613 5612 5611 5612 5612 5612 5611 5611 5611 5611 5611 5611 5610 5610 5610 5609 5608 5608 5607 5607 5606 5606 5605 5604 5603 5602 5600 5598 5597 5595
5604 5605 5606 5606 5606 5607 5607 5608 5608 5609 5609 5608 5608 5608 5607 5606 5604 5604 5604 5604 5604 5604 5603 5604 5604 5604 5603 5603 5603 5603 5602 5602 5601 5600 5600 5599 5598 5597 5596 5595 5594 5592 5590 5588
5598 5598 5599 5601 5601 5602 5602 5601 5600 5600 5600 5600 5600 5600 5599 5598 5597 5597 5596 5597 5597 5596 5596 5596 5597 5597 5597 5597 5597 5597 5597 5596 5595 5594 5594 5592 5591 5590 5589 5588 5587 5585 5583 5582
5594 5594 5595 5596 5597 5598 5597 5596 5595 5594 5594 5594 5593 5593 5592 5591 5590 5589 5589 5589 5589 5589 5589 5589 5590 5590 5590 5590 5590 5590 5590 5589 5589 5588 5587 5585 5584 5582 5581 5580 5579 5577 5575 5574